User: anonymous   Login
Location: Étavigny
(49.1201°N, 2.9800°E)
Time: 03:38:58
(UTC+00:00)
Language:

Cosmos 1867 - Orbit

View from above orbital plane
View from above orbital plane
View from above satellite
View from above satellite

Ground track
Ground track

The orbit data is extracted from the following two-line orbital elements,

1 18187U 87060A   23154.56130059 -.00000001  00000-0  37361-4 0  9996
2 18187  65.0107 254.8959 0014290 277.6477  82.2984 14.31208827875351
Epoch (UTC): 03 June 2023 13:28:16
Eccentricity: 0.0014290
inclination: 65.0107°
perigee height: 777 km
apogee height: 798 km
right ascension of ascending node: 254.8959°
argument of perigee: 277.6477°
revolutions per day: 14.31208827
mean anomaly at epoch: 82.2984°
orbit number at epoch: 87535

The dashed part of the orbit path shows where the satellite is in the earth's shadow,  

DLR